Weather History for KOZR - January, 2013

Change the Weather History Date:

Friday, January 25, 2013

  Actual Average Record
Temperature  
Mean Temperature 59 °F -  
Max Temperature 69 °F 58 °F 78 °F (2012)
Min Temperature 49 °F 37 °F 21 °F (2003)
Degree Days  
Heating Degree Days 6    
Growing Degree Days 9 (Base 50)    
Moisture  
Dew Point 47 °F    
Average Humidity 68    
Maximum Humidity 92    
Minimum Humidity 52    
Precipitation  
Precipitation 0.00 in - - ()
Sea Level Pressure  
Sea Level Pressure 30.23 in    
Wind  
Wind Speed 7 mph (SSE)    
Max Wind Speed 16 mph    
Max Gust Speed 21 mph    
Visibility 10 miles    
Events      
Averages and records for this station are not official NWS values.
T = Trace of Precipitation, MM = Missing Value Source: NWS Daily Summary

Daily Weather History Graph

Daily Weather History Graph

Search for Another Location

Airport or City:

Trip Planner

Search our weather history database for the weather conditions in past years. The results will help you decide how hot, cold, wet, or windy it might be!

Date:

Astronomy

Jan. 25, 2013 Rise Set
Actual Time 6:38 AM CST 5:11 PM CST
Civil Twilight 6:13 AM CST 5:37 PM CST
Nautical Twilight 5:43 AM CST 6:07 PM CST
Astronomical Twilight 5:14 AM CST 6:35 PM CST
Moon 4:08 PM CST (1/25) 5:17 AM CST (1/25)
Length of Visible Light 11h 24m
Length of Day
10h 33m
Waxing Gibbous, 98% of the Moon is Illuminated
Jan 25
Waxing Gibbous
Jan 26
Full
Feb 3
Last Quarter
Feb 10
New
Feb 17
First Quarter

Hourly Weather History & Observations

Time (CST) Temp. Dew Point Humidity Pressure Visibility Wind Dir Wind Speed Gust Speed Precip Events Conditions
12:55 AM 51.4 °F 49.1 °F 92% 30.30 in 10.0 mi NNE 3.5 mph - N/A   Overcast
1:55 AM 51.3 °F 46.8 °F 85% 30.28 in 10.0 mi East 8.1 mph - N/A   Mostly Cloudy
2:55 AM 51.3 °F 45.1 °F 80% 30.28 in 10.0 mi ENE 4.6 mph - N/A   Overcast
3:55 AM 51.3 °F 42.6 °F 72% 30.29 in 10.0 mi ENE 5.8 mph - N/A   Overcast
4:55 AM 50.4 °F 39.9 °F 67% 30.29 in 10.0 mi ENE 4.6 mph - N/A   Overcast
5:55 AM 50.2 °F 37.6 °F 62% 30.30 in 10.0 mi ENE 4.6 mph - N/A   Overcast
6:55 AM 49.5 °F 37.2 °F 63% 30.31 in 10.0 mi ENE 4.6 mph - N/A   Overcast
7:55 AM 50.5 °F 35.6 °F 57% 30.31 in 10.0 mi Variable 5.8 mph - N/A   Overcast
8:55 AM 54.7 °F 37.4 °F 52% 30.31 in 10.0 mi ESE 12.7 mph - N/A   Partly Cloudy
9:55 AM 59.2 °F 41.7 °F 52% 30.29 in 10.0 mi SE 8.1 mph - N/A   Clear
10:55 AM 62.6 °F 46.0 °F 55% 30.27 in 10.0 mi South 8.1 mph - N/A   Clear
11:55 AM 66.6 °F 48.6 °F 52% 30.23 in 10.0 mi South 6.9 mph - N/A   Clear
12:55 PM 68.0 °F 51.1 °F 55% 30.21 in 10.0 mi South 13.8 mph - N/A   Partly Cloudy
1:55 PM 68.7 °F 52.0 °F 55% 30.19 in 10.0 mi SW 8.1 mph - N/A   Overcast
2:55 PM 69.8 °F 52.5 °F 54% 30.18 in 10.0 mi South 16.1 mph - N/A   Scattered Clouds
3:55 PM 68.0 °F 52.2 °F 57% 30.16 in 10.0 mi SSW 13.8 mph 20.7 mph N/A   Mostly Cloudy
4:55 PM 66.0 °F 52.2 °F 61% 30.15 in 10.0 mi SSW 10.4 mph - N/A   Mostly Cloudy
5:55 PM 63.5 °F 52.5 °F 67% 30.17 in 10.0 mi SSW 6.9 mph - N/A   Mostly Cloudy
6:55 PM 60.8 °F 51.6 °F 72% 30.19 in 10.0 mi SW 6.9 mph - N/A   Scattered Clouds
7:55 PM 59.4 °F 51.8 °F 76% 30.18 in 10.0 mi South 6.9 mph - N/A   Clear
8:55 PM 57.4 °F 51.6 °F 81% 30.18 in 10.0 mi South 5.8 mph - N/A   Clear
9:55 PM 56.3 °F 52.0 °F 85% 30.19 in 10.0 mi South 8.1 mph - N/A   Clear
10:55 PM 56.1 °F 52.5 °F 88% 30.19 in 10.0 mi SSW 6.9 mph - N/A   Clear
11:55 PM 56.3 °F 53.2 °F 89% 30.17 in 10.0 mi SW 6.9 mph - N/A   Clear